Date,TemperatureHighF,TemperatureAvgF,TemperatureLowF,DewpointHighF,DewpointAvgF,DewpointLowF,HumidityHigh,HumidityAvg,HumidityLow,PressureMaxIn,PressureMinIn,WindSpeedMaxMPH,WindSpeedAvgMPH,GustSpeedMaxMPH,PrecipitationSumIn
2013-1-1,37.6,31.9,25.0,24.7,19.8,10.7,75,61,46,29.77,29.61,12,3,0,0.04
2013-1-2,27.1,16.3,5.9,12.3,4.6,-2.5,79,60,48,29.99,29.83,11,2,0,0.00
2013-1-3,25.0,11.5,-0.9,7.4,-4.2,-11.6,75,51,20,30.03,29.88,7,1,0,0.00
2013-1-4,40.1,23.6,7.2,23.4,15.7,2.9,88,73,50,29.87,29.69,7,1,0,0.03
2013-1-5,42.3,29.6,17.4,25.6,19.5,13.9,87,68,42,30.15,29.75,8,2,0,0.01
2013-1-6,44.6,30.2,22.3,28.5,24.0,18.5,89,79,52,30.09,29.83,5,1,0,0.00
2013-1-7,41.2,27.8,15.6,29.0,20.3,12.7,93,75,45,30.30,29.86,8,1,0,0.00
2013-1-8,48.2,30.1,14.2,29.3,22.8,10.5,92,76,47,30.27,30.15,6,1,0,0.00
2013-1-9,46.0,34.1,19.0,34.8,27.1,16.5,92,77,51,30.30,29.89,6,1,0,0.00
2013-1-10,46.2,39.3,27.3,27.5,23.6,21.4,78,54,40,30.44,29.96,10,4,0,0.00
2013-1-11,41.7,31.9,21.9,35.3,26.2,18.9,98,80,57,30.44,30.10,3,0,0,0.10
2013-1-12,43.2,38.3,35.1,41.3,37.5,34.6,98,97,90,30.12,30.01,3,0,0,0.05
2013-1-13,50.5,44.6,37.8,50.0,44.0,37.3,98,98,95,30.03,29.88,3,1,0,0.01
2013-1-14,59.9,50.9,40.1,52.0,44.7,28.1,98,81,43,30.14,29.76,11,2,0,0.00
2013-1-15,40.8,35.6,30.6,28.0,24.7,23.3,77,65,52,30.20,30.12,7,1,0,0.00
2013-1-16,33.6,31.5,28.9,30.8,27.8,22.8,95,86,68,30.14,29.71,3,0,0,0.00
2013-1-17,41.4,32.1,24.6,34.4,25.2,15.5,98,77,55,29.97,29.73,6,1,0,0.47
2013-1-18,23.7,16.0,12.2,3.8,0.7,-3.9,67,53,29,30.33,30.28,4,1,0,0.00
2013-1-19,46.2,41.1,31.1,26.1,24.5,20.4,64,52,42,30.08,29.88,8,4,0,0.08
2013-1-20,52.9,42.8,27.7,32.0,28.4,8.2,75,58,32,29.81,29.42,10,3,0,0.00
2013-1-21,29.8,24.1,20.3,18.3,13.6,5.5,87,67,36,29.98,29.69,4,1,0,0.00
2013-1-22,25.3,18.4,10.4,17.7,4.9,-5.9,88,59,30,29.97,29.61,14,2,0,0.00
2013-1-23,16.2,9.4,4.1,-2.2,-9.5,-14.0,61,42,27,30.04,29.95,8,3,0,0.00
2013-1-24,18.9,9.3,0.5,-9.9,-12.4,-15.3,49,37,23,30.12,29.94,10,4,0,0.00
2013-1-25,25.3,14.6,4.6,10.4,-9.3,-15.7,77,35,18,30.22,29.96,10,2,0,0.00
2013-1-26,25.3,12.8,4.5,11.0,3.6,-3.4,83,69,30,30.14,29.90,6,1,0,0.00
2013-1-27,30.0,19.9,11.3,1.9,-0.3,-3.6,58,42,24,30.37,30.14,7,3,0,0.00
2013-1-28,26.4,19.5,14.2,23.9,10.5,1.3,90,69,50,30.35,29.91,2,0,0,0.00
2013-1-29,31.3,27.0,25.2,25.9,23.7,22.7,90,87,80,30.07,29.92,3,2,0,0.00
2013-1-30,60.1,48.6,32.2,57.3,47.2,30.7,98,95,89,30.02,29.34,12,3,0,0.48
2013-1-31,59.9,46.9,29.5,59.3,37.0,14.5,98,71,39,29.48,28.85,23,5,0,0.72
2013-2-1,32.4,26.2,20.1,15.2,8.2,2.1,58,46,32,29.99,29.48,7,3,0,0.00
2013-2-2,32.2,23.3,13.3,11.4,5.7,0.7,62,47,33,30.15,29.93,5,2,0,0.00
2013-2-3,27.5,23.6,18.3,20.4,17.9,12.0,88,79,58,29.95,29.62,5,1,0,0.00
2013-2-4,30.6,21.9,12.7,18.6,9.4,4.1,88,60,37,29.84,29.61,8,2,0,0.00
2013-2-5,30.6,24.0,14.5,20.1,13.0,7.3,86,63,46,29.92,29.82,3,1,0,0.08
2013-2-6,39.6,29.0,21.9,25.3,17.1,2.6,90,64,38,30.19,29.81,11,2,0,0.02
2013-2-7,32.0,22.8,11.5,9.9,3.2,-0.3,76,44,27,30.42,30.19,6,1,0,0.00
2013-2-8,32.2,24.7,16.7,29.6,19.3,8.8,93,80,57,30.38,29.49,16,4,0,0.01
2013-2-9,24.4,19.6,15.8,18.6,14.8,8.5,89,82,59,29.94,29.46,14,7,0,0.00
2013-2-10,38.8,24.7,7.9,34.6,15.2,3.0,98,74,26,30.28,30.24,4,1,0,0.00
2013-2-11,40.3,27.4,7.3,39.8,24.7,3.0,98,89,78,30.25,29.49,5,0,0,0.40
2013-2-12,45.0,37.7,26.2,39.1,28.4,22.0,98,70,51,29.77,29.50,14,3,0,0.00
2013-2-13,46.0,29.9,19.0,26.5,21.7,16.1,92,74,43,29.76,29.61,5,1,0,0.00
2013-2-14,48.2,33.7,22.8,23.5,20.6,18.7,89,61,33,29.88,29.60,8,2,0,0.00
2013-2-15,45.3,28.0,18.9,32.2,24.6,16.5,98,87,60,29.89,29.80,4,0,0,0.00
2013-2-16,39.9,33.6,27.0,31.3,25.8,16.0,94,74,52,29.85,29.60,6,2,0,0.02
2013-2-17,28.2,21.0,16.0,19.2,8.1,-2.7,84,59,37,29.59,29.29,14,6,0,0.00
2013-2-18,33.4,21.4,12.6,1.2,-2.6,-7.4,49,36,18,29.98,29.59,10,4,0,0.00
2013-2-19,49.8,41.6,28.4,40.1,33.0,13.0,98,75,45,29.99,29.46,5,1,0,0.35
2013-2-20,37.2,30.9,24.3,36.7,18.1,8.6,98,61,39,29.66,29.42,13,4,0,0.00
2013-2-21,34.3,27.5,22.5,13.6,11.4,8.9,61,51,40,29.87,29.66,11,5,0,0.00
2013-2-22,44.6,36.6,28.6,22.3,20.6,18.8,76,54,36,30.26,30.23,3,1,0,0.00
2013-2-23,39.9,33.8,32.0,30.7,30.0,28.7,94,86,65,30.07,29.80,3,2,0,0.00
2013-2-24,35.2,32.9,30.9,33.0,31.1,29.3,95,93,90,29.79,29.58,6,3,0,0.76
2013-2-25,44.1,33.9,26.4,33.9,29.6,24.1,93,85,61,30.11,29.79,6,1,0,0.76
2013-2-26,47.5,36.0,32.4,33.5,28.6,26.6,84,75,53,30.23,30.04,4,1,0,0.08
2013-2-27,41.2,38.1,34.7,40.0,36.7,30.2,98,94,80,30.04,29.46,13,4,0,1.48
2013-2-28,50.7,38.4,31.1,40.1,35.0,29.6,98,88,66,29.53,29.43,4,1,0,0.01
2013-3-1,36.7,36.4,36.1,27.2,27.0,26.9,69,68,68,29.55,29.55,0,0,0,0.00
2013-3-2,43.2,39.8,34.5,28.5,27.1,24.9,70,60,55,29.57,29.52,8,3,0,0.00
2013-3-3,32.4,31.9,31.1,28.0,26.6,25.4,88,81,75,29.49,29.48,3,1,0,0.00
2013-3-4,32.2,30.4,27.7,25.2,23.1,19.9,75,74,72,29.52,29.48,7,3,0,0.00
2013-3-15,42.8,36.8,24.8,25.8,11.8,2.6,74,38,19,29.77,29.54,4,3,0,0.00
2013-3-16,41.5,35.0,25.9,18.5,11.3,5.5,73,39,22,29.77,29.66,5,1,0,0.00
2013-3-17,40.1,29.2,18.5,16.3,9.3,-1.5,79,47,21,30.11,29.76,11,3,0,0.00
2013-3-18,35.1,33.4,32.5,17.3,16.3,14.3,53,49,42,30.18,30.16,2,1,0,0.00
2013-3-19,35.2,30.4,27.9,33.1,28.2,25.6,93,92,91,30.05,29.52,7,3,0,0.50
2013-3-21,39.2,37.1,34.5,25.5,21.2,17.2,65,53,45,29.64,29.49,6,2,0,0.13
2013-3-22,42.4,33.7,27.9,20.1,18.4,15.0,66,54,34,29.64,29.54,6,3,0,0.03
2013-3-23,43.5,32.7,26.4,22.3,18.8,16.9,75,57,36,29.69,29.55,6,3,0,0.01
2013-3-24,53.6,38.6,28.6,25.2,21.7,17.6,80,52,33,29.71,29.61,9,3,0,0.00
2013-3-25,43.7,35.9,27.9,32.7,27.9,22.3,87,73,63,29.65,29.40,7,3,0,0.00
2013-3-26,44.4,44.3,44.2,27.4,27.3,27.2,51,51,51,29.57,29.57,3,3,0,0.00
2013-3-27,54.9,49.8,45.1,24.5,23.6,22.0,44,36,29,29.73,29.64,5,2,0,0.00
2013-3-28,48.6,47.0,45.3,31.7,30.8,29.4,58,53,48,29.85,29.84,7,4,0,0.00
2013-3-29,62.1,53.8,44.6,34.4,31.1,27.6,65,43,29,29.94,29.86,8,4,0,0.00
2013-3-30,61.3,48.5,30.2,21.9,15.9,10.4,68,32,15,30.00,29.89,10,2,0,0.08
2013-3-31,63.7,43.3,23.7,40.7,26.0,17.6,89,57,17,30.03,29.63,7,2,0,0.02
2013-4-1,65.1,45.9,33.6,47.9,36.6,10.8,98,73,34,29.69,29.39,8,3,0,0.15
2013-4-2,43.0,33.4,24.3,18.9,12.9,8.2,64,43,27,29.85,29.70,10,3,0,0.00
2013-4-3,47.3,36.0,28.8,19.0,12.3,6.8,62,39,20,30.07,29.81,10,4,0,0.00
2013-4-4,59.5,38.5,26.1,25.5,16.1,8.4,63,44,14,30.21,29.92,6,2,0,0.00
2013-4-5,65.5,46.7,35.4,32.3,25.4,16.3,72,48,15,29.94,29.52,11,3,0,0.00
2013-4-6,48.0,35.4,25.3,24.8,10.0,-4.7,56,39,12,30.24,29.79,10,3,0,0.00
2013-4-7,59.5,42.1,21.6,39.6,26.5,12.3,81,57,24,30.23,29.89,9,3,0,0.00
2013-4-8,70.5,53.1,37.6,44.0,39.2,33.1,98,65,28,29.98,29.85,10,2,0,0.00
2013-4-9,73.8,52.7,45.1,46.8,42.1,39.4,98,70,37,29.98,29.77,6,1,0,0.13
2013-4-10,70.9,52.6,45.1,51.9,46.0,41.9,98,80,48,29.91,29.74,6,1,0,0.22
2013-4-11,54.5,46.1,39.7,47.0,33.2,26.3,98,63,43,30.06,29.72,5,3,0,0.02
2013-4-12,39.9,38.3,36.7,36.9,35.5,32.3,98,90,75,30.07,29.69,8,2,0,0.64
2013-4-13,53.4,44.4,36.3,36.7,35.6,33.7,95,74,51,29.79,29.65,7,2,0,0.11
2013-4-14,53.6,45.2,33.8,37.1,29.8,25.8,91,57,39,30.10,29.84,6,2,0,0.00
2013-4-15,64.0,46.6,27.3,38.9,32.5,24.7,92,62,30,30.30,30.12,7,2,0,0.00
2013-4-16,70.3,51.9,32.2,50.5,41.4,29.6,95,70,41,30.32,29.97,7,2,0,0.00
2013-4-17,71.8,58.1,42.3,52.6,37.2,26.2,89,51,19,30.24,29.97,11,3,0,0.00
2013-4-18,70.7,50.5,32.4,45.0,33.5,28.3,90,57,27,30.34,30.05,7,2,0,0.00
2013-4-19,78.1,63.2,51.6,62.9,57.6,45.3,98,83,54,30.05,29.54,8,3,0,0.00
2013-4-20,66.2,54.3,42.6,63.1,41.2,23.3,98,65,36,30.14,29.50,8,3,0,0.75
2013-4-21,57.7,43.1,30.6,27.1,21.2,15.5,78,44,22,30.61,30.15,10,2,0,0.00
2013-4-22,56.7,40.9,27.1,34.3,28.7,24.3,92,66,31,30.68,30.53,12,2,0,0.00
2013-4-23,41.4,40.8,39.9,40.1,39.4,38.0,98,94,93,30.36,30.03,8,4,0,0.03
2013-4-24,79.7,56.6,40.3,55.5,44.4,35.6,98,70,22,30.01,29.67,6,3,0,0.00
2013-4-25,68.7,55.5,40.3,52.0,36.1,24.2,94,54,21,30.16,29.72,9,3,0,0.02
2013-4-26,68.9,49.3,31.8,40.9,34.1,27.4,87,59,35,30.33,30.18,10,2,0,0.00
2013-4-27,71.1,51.2,32.2,41.6,35.4,29.6,95,61,26,30.34,30.18,5,1,0,0.00
2013-4-28,79.5,54.8,33.8,42.2,34.1,30.5,97,54,17,30.25,30.10,6,1,0,0.00
2013-4-29,77.2,57.6,42.3,47.3,36.8,28.5,91,51,22,30.18,30.08,6,1,0,0.00
2013-4-30,79.9,57.7,39.9,37.3,26.5,15.2,78,38,9,30.27,30.15,7,1,0,0.00
2013-5-1,79.9,54.8,32.9,38.5,32.6,28.8,91,51,17,30.38,30.27,6,1,0,0.00
2013-5-2,87.3,56.8,37.9,47.7,39.4,34.0,98,61,16,30.39,30.24,6,1,0,0.00
2013-5-3,66.7,51.0,40.1,45.2,40.2,36.4,90,69,43,30.44,30.29,8,2,0,0.01
2013-5-4,69.6,49.8,34.2,46.3,37.9,32.1,96,68,39,30.28,30.20,7,1,0,0.00
2013-5-5,70.3,48.5,31.1,43.4,37.4,29.1,98,70,36,30.25,30.13,8,1,0,0.00
2013-5-6,82.4,54.9,32.5,50.7,42.5,30.4,98,69,28,30.21,30.03,5,1,0,0.00
2013-5-7,88.2,63.5,40.1,57.9,50.6,38.5,98,69,32,30.09,29.95,4,1,0,0.08
2013-5-8,76.8,63.2,50.9,65.7,58.4,50.2,98,86,57,30.09,29.93,5,1,0,0.13
2013-5-9,73.4,61.3,56.7,66.8,59.4,56.1,98,94,73,29.94,29.77,3,0,0,1.02
2013-5-10,87.6,66.9,48.9,63.6,55.6,48.4,98,72,33,29.85,29.76,4,0,0,0.00
2013-5-11,74.1,63.5,57.9,63.2,59.5,54.0,98,87,68,29.80,29.59,5,1,0,0.10
2013-5-12,66.7,59.6,48.4,61.3,52.1,32.4,98,78,45,29.71,29.44,10,1,0,0.19
2013-5-13,64.2,51.4,40.5,34.4,31.7,27.3,77,50,29,29.86,29.71,8,2,0,0.00
2013-5-14,63.7,54.4,40.8,34.9,31.0,27.2,78,42,28,29.96,29.87,7,2,0,0.00
2013-5-15,70.9,51.8,34.3,52.6,40.5,32.0,98,72,24,29.97,29.58,4,1,0,0.05
2013-5-16,85.6,66.9,46.6,52.0,40.9,31.0,98,48,16,29.68,29.52,8,2,0,0.00
2013-5-17,73.4,59.3,45.3,45.0,41.6,36.6,88,55,32,30.12,29.69,12,2,0,0.00
2013-5-18,81.7,60.1,39.6,52.4,42.3,33.5,98,60,18,30.22,30.11,5,1,0,0.00
2013-5-19,77.2,58.4,44.4,55.0,50.2,42.8,98,78,42,30.26,30.12,4,1,0,0.08
2013-5-20,85.8,68.8,55.4,65.9,61.3,54.8,98,80,49,30.11,29.79,8,1,0,0.02
2013-5-21,94.8,66.6,51.1,69.9,59.5,50.5,98,82,43,29.89,29.71,7,1,0,0.14
2013-5-22,74.3,58.7,50.2,66.6,55.9,49.7,98,91,74,29.95,29.76,4,1,0,0.15
2013-5-23,79.5,65.5,54.7,70.9,62.6,54.1,98,91,75,29.81,29.68,4,1,0,0.28
2013-5-24,76.1,63.3,48.0,68.7,61.1,47.5,98,93,74,29.72,29.54,6,1,0,0.33
2013-5-25,48.0,47.6,47.3,47.5,47.1,46.8,98,98,98,29.71,29.65,5,3,0,0.22
2013-5-26,61.5,51.7,41.2,43.6,40.2,38.2,91,66,48,30.02,29.67,16,4,0,0.00
2013-5-27,79.2,57.3,36.1,45.2,39.3,30.4,98,60,19,30.07,29.97,12,2,0,0.00
2013-5-28,84.7,61.2,39.0,54.3,45.5,37.4,98,64,21,30.15,30.04,5,1,0,0.00
2013-5-29,75.0,63.9,57.6,67.3,61.3,54.8,98,92,75,30.08,29.88,3,0,0,1.38
2013-5-30,91.0,75.3,60.1,72.4,66.5,59.5,98,78,49,29.99,29.88,6,1,0,0.00
2013-5-31,101.1,80.8,63.7,72.5,66.5,63.1,98,68,32,29.98,29.80,5,1,0,0.00
2013-6-1,99.5,80.0,62.2,70.2,66.7,61.6,98,68,37,29.87,29.71,4,1,0,0.00
2013-6-2,95.5,78.8,66.9,71.3,67.2,64.3,98,71,39,29.77,29.59,6,2,0,0.00
2013-6-3,83.1,70.1,60.3,71.2,64.2,46.8,98,83,60,29.73,29.62,3,0,0,0.66
2013-6-4,74.5,61.4,45.5,49.6,45.7,41.3,90,59,39,29.98,29.71,6,2,0,0.00
2013-6-5,84.2,64.1,45.9,54.5,48.0,43.9,98,62,28,30.09,29.96,5,1,0,0.00
2013-6-6,84.4,65.8,50.4,56.0,51.7,48.2,96,64,33,30.08,29.98,5,1,0,0.00
2013-6-7,53.6,53.4,53.2,53.0,52.8,52.6,98,98,98,29.76,29.73,3,3,0,0.00
2013-6-8,78.6,67.5,53.4,64.5,60.3,52.8,98,79,61,29.90,29.69,8,1,0,0.03
2013-6-9,86.5,68.4,52.5,59.9,56.4,52.0,98,71,37,30.05,29.90,8,1,0,0.00
2013-6-10,74.7,62.4,52.5,63.8,58.5,52.0,98,88,58,30.10,29.90,4,1,0,1.02
2013-6-11,65.3,59.2,56.3,60.6,57.6,55.7,98,95,83,29.91,29.45,5,2,0,1.62
2013-6-12,73.6,63.2,57.0,58.8,55.8,53.0,98,79,55,29.70,29.44,11,3,0,0.03
2013-6-13,66.2,56.4,48.7,61.4,54.5,48.2,98,94,79,29.71,29.57,6,0,0,1.19
2013-6-14,74.1,60.7,51.6,60.7,54.8,51.1,98,83,56,29.65,29.53,6,2,0,1.49
2013-6-15,84.6,68.9,54.5,55.5,49.7,43.5,89,55,24,29.84,29.66,7,2,0,0.00
2013-6-16,81.9,65.9,49.6,63.1,56.1,47.4,93,73,40,29.85,29.58,4,1,0,0.00
2013-6-17,93.0,70.2,56.3,64.4,60.0,55.6,98,76,35,29.79,29.63,10,1,0,0.20
2013-6-18,85.3,64.1,57.4,67.8,60.9,56.8,98,91,56,29.84,29.76,6,1,0,0.86
2013-6-19,81.3,65.4,54.0,59.9,54.8,49.2,98,73,34,30.03,29.80,6,2,0,0.09
2013-6-20,88.2,67.3,47.5,57.6,52.8,44.7,98,66,25,30.16,30.04,4,1,0,0.00
2013-6-21,90.1,71.1,55.4,65.7,60.4,54.3,98,72,43,30.15,30.05,4,1,0,0.00
2013-6-22,91.4,73.9,58.8,67.5,61.9,57.4,98,69,40,30.11,29.97,4,1,0,0.00
2013-6-23,96.1,77.9,62.1,74.5,66.8,58.3,89,71,48,30.04,29.87,3,1,0,0.00
2013-6-24,98.1,78.2,68.0,74.4,70.1,66.1,98,79,45,29.91,29.74,6,1,0,0.14
2013-6-25,97.9,80.0,67.1,73.0,69.5,66.5,98,74,42,29.81,29.58,9,1,0,0.00
2013-6-26,93.2,77.2,68.0,72.9,69.5,67.4,98,79,51,29.72,29.59,5,1,0,0.00
2013-6-27,76.3,68.1,64.2,69.7,66.0,63.4,98,93,76,29.74,29.62,4,1,0,0.26
2013-6-28,87.1,72.5,61.9,76.3,68.7,61.3,98,89,64,29.64,29.34,4,1,0,0.33
2013-6-29,90.3,76.3,69.3,73.7,70.2,67.6,98,83,55,29.59,29.38,3,1,0,0.05
2013-6-30,92.8,78.2,67.8,76.0,71.3,67.2,98,81,55,29.80,29.59,3,1,0,0.00
2013-7-1,86.7,76.2,71.1,79.7,73.4,70.5,98,91,70,29.95,29.80,4,0,0,0.16
2013-7-2,87.1,76.8,66.2,76.5,72.4,63.5,98,87,69,30.08,29.94,4,1,0,0.00
2013-7-3,94.3,77.4,63.3,76.6,70.5,61.7,98,81,54,30.09,29.99,4,1,0,0.00
2013-7-4,98.8,83.5,71.1,77.5,74.3,70.5,98,77,46,30.08,29.93,5,1,0,0.00
2013-7-5,101.5,85.3,74.1,77.3,74.7,72.2,95,73,46,30.02,29.89,5,1,0,0.00
2013-7-6,96.8,81.8,72.3,77.0,73.0,68.2,98,77,49,29.97,29.84,5,1,0,0.00
2013-7-7,99.5,79.7,68.0,77.9,72.0,67.3,98,80,47,29.91,29.76,3,0,0,0.00
2013-7-8,98.8,78.2,68.9,77.0,72.0,67.0,98,84,45,29.94,29.79,4,0,0,0.00
2013-7-9,76.8,70.4,65.3,71.2,67.3,64.7,98,90,80,29.99,29.91,4,1,0,0.00
2013-7-10,93.2,75.9,66.9,77.4,71.7,65.4,98,88,60,29.95,29.65,3,1,0,0.09
2013-7-11,86.7,75.6,69.6,76.7,73.0,68.5,98,92,69,29.80,29.65,4,0,0,0.22
2013-7-12,78.6,71.3,64.8,68.3,63.6,57.8,93,77,62,30.08,29.80,6,2,0,0.00
2013-7-13,79.9,70.8,64.9,72.3,67.5,60.6,98,90,76,30.20,30.08,4,1,0,0.08
2013-7-14,97.7,79.5,69.1,77.1,72.6,68.5,98,83,47,30.19,30.07,5,1,0,0.04
2013-7-15,95.9,81.1,69.3,77.7,73.0,68.7,98,80,50,30.10,29.95,3,0,0,0.01
2013-7-16,97.9,82.2,70.0,73.7,70.1,67.1,98,70,41,30.05,29.97,6,1,0,0.00
2013-7-17,101.5,83.8,68.9,75.8,71.9,67.8,98,72,36,30.07,29.87,6,1,0,0.00
2013-7-18,102.7,85.7,75.0,77.7,74.5,71.3,93,72,39,29.89,29.80,5,1,0,0.00
2013-7-19,103.6,86.1,72.0,78.6,74.9,71.4,98,73,40,29.83,29.58,6,1,0,0.00
2013-7-20,98.8,84.6,72.5,79.3,74.7,64.9,98,74,45,29.69,29.50,5,1,0,0.00
2013-7-21,91.0,77.1,67.1,69.3,66.2,62.4,98,71,47,29.86,29.69,6,1,0,0.00
2013-7-22,92.1,73.7,63.7,72.1,67.7,63.1,98,84,51,29.90,29.75,5,1,0,0.00
2013-7-23,88.7,74.0,69.4,80.0,72.2,68.2,98,95,74,29.75,29.40,10,1,0,1.41
2013-7-24,90.0,77.2,67.1,74.6,68.6,57.0,98,77,50,29.82,29.44,7,1,0,0.00
2013-7-25,65.5,60.4,58.1,58.8,55.2,50.5,98,84,70,29.99,29.83,7,2,0,0.68
2013-7-26,74.3,64.8,59.2,69.3,63.1,58.6,98,94,83,29.94,29.83,10,2,0,0.49
2013-7-27,93.0,72.5,57.4,70.8,64.0,56.8,98,78,42,29.95,29.86,3,0,0,0.03
2013-7-28,91.0,73.8,62.1,73.3,68.1,61.5,98,84,52,29.90,29.82,4,1,0,0.00
2013-7-29,92.5,74.7,65.8,74.3,69.4,65.2,98,86,50,29.91,29.83,3,0,0,0.56
2013-7-30,87.6,71.1,58.3,64.7,61.2,57.7,98,75,39,29.98,29.90,7,1,0,0.01
2013-7-31,90.9,70.7,57.6,65.6,61.2,57.0,98,76,36,30.03,29.90,4,1,0,0.00
2013-8-1,86.9,70.3,59.5,68.6,64.0,58.9,98,83,53,29.93,29.75,3,0,0,0.00
2013-8-2,88.7,72.3,64.4,70.6,64.9,60.7,98,81,44,29.77,29.66,5,1,0,0.71
2013-8-3,83.3,70.7,62.1,67.0,64.0,60.6,98,81,57,29.74,29.65,4,1,0,0.00
2013-8-4,87.4,68.4,56.8,63.2,59.3,55.9,98,76,40,29.77,29.64,6,1,0,0.00
2013-8-5,79.3,65.6,52.2,57.0,50.3,42.9,98,64,29,29.93,29.77,6,2,0,0.00
2013-8-6,87.6,65.2,46.8,59.2,53.0,46.3,98,71,33,30.03,29.92,5,0,0,0.00
2013-8-7,89.4,68.5,52.2,63.6,56.3,51.6,98,71,29,30.07,29.98,4,1,0,0.00
2013-8-8,82.6,71.6,63.7,74.2,67.9,58.7,98,88,73,30.00,29.87,5,1,0,0.12
2013-8-9,75.9,72.1,70.2,75.3,71.5,69.6,98,98,98,29.91,29.62,3,0,0,2.16
2013-8-10,88.3,73.5,61.7,70.8,63.5,54.9,98,75,40,29.89,29.66,6,1,0,0.01
2013-8-11,84.7,66.8,51.1,60.2,56.2,50.6,98,74,36,29.97,29.87,3,1,0,0.00
2013-8-12,91.4,70.4,57.9,64.9,60.4,57.3,98,76,35,29.91,29.78,4,1,0,0.00
2013-8-13,77.4,67.6,61.5,70.6,65.2,60.9,98,93,74,29.80,29.56,2,0,0,0.02
2013-8-14,76.8,65.6,57.4,62.5,56.5,52.3,98,74,48,29.85,29.54,8,2,0,0.00
2013-8-15,85.1,64.4,51.6,58.3,54.4,51.1,98,75,33,29.99,29.85,6,1,0,0.00
2013-8-16,84.4,65.9,52.7,60.7,56.7,52.2,98,77,41,30.08,29.99,4,1,0,0.00
2013-8-17,88.7,67.7,52.2,64.4,59.3,51.7,98,78,43,30.17,30.08,5,0,0,0.00
2013-8-18,89.2,68.1,55.9,67.2,61.8,55.3,98,83,43,30.16,29.97,2,0,0,0.00
2013-8-19,87.6,70.5,57.4,66.2,61.9,56.8,98,77,43,29.97,29.83,4,0,0,0.00
2013-8-20,93.6,74.1,61.0,67.3,63.6,60.4,98,74,35,29.96,29.85,5,1,0,0.00
2013-8-21,94.6,73.8,58.1,68.8,64.6,57.5,98,77,42,30.04,29.90,4,0,0,0.00
2013-8-22,91.0,74.6,61.9,74.3,68.6,61.3,98,83,52,29.92,29.70,4,1,0,0.00
2013-8-23,85.5,72.5,60.8,70.6,61.7,53.9,98,71,39,29.99,29.70,8,2,0,0.00
2013-8-24,84.4,65.7,51.8,54.4,51.7,45.8,98,65,31,30.23,30.00,7,1,0,0.00
2013-8-25,90.3,66.2,47.1,62.5,53.4,46.6,98,70,31,30.26,30.06,5,1,0,0.00
2013-8-26,83.8,71.7,63.9,68.5,63.6,57.7,91,77,56,30.08,29.74,6,1,0,0.00
2013-8-27,86.7,73.2,64.2,73.8,68.8,63.6,98,88,59,29.77,29.69,5,1,0,0.20
2013-8-28,91.2,72.2,59.2,70.9,65.1,58.6,98,81,48,29.85,29.71,4,1,0,0.00
2013-8-29,67.6,64.7,59.4,66.0,62.8,57.7,98,94,88,29.96,29.82,6,2,0,0.00
2013-8-30,85.8,70.7,58.5,69.6,64.9,57.9,98,84,56,29.92,29.70,3,0,0,0.00
2013-8-31,84.7,74.2,65.7,75.6,71.0,65.1,98,90,73,29.72,29.66,3,0,0,0.00
2013-9-1,77.4,72.1,68.2,76.8,71.5,67.6,98,98,94,29.77,29.68,3,0,0,1.05
2013-9-2,79.5,73.6,70.7,78.9,73.0,70.1,98,98,98,29.74,29.59,3,0,0,0.06
2013-9-3,83.8,72.0,61.7,80.2,70.8,60.0,98,96,87,29.69,29.57,5,0,0,0.01
2013-9-4,86.2,67.9,56.7,63.0,59.0,56.1,98,77,44,29.81,29.68,6,1,0,0.00
2013-9-5,72.1,61.5,47.7,65.8,55.3,46.4,98,82,47,30.03,29.75,5,1,0,0.10
2013-9-6,75.7,55.2,40.1,48.4,44.7,39.6,98,73,32,30.15,29.98,4,1,0,0.00
2013-9-7,84.6,63.8,45.5,58.4,52.5,45.0,98,72,32,29.98,29.74,3,1,0,0.00
2013-9-8,76.8,64.2,50.4,63.8,54.9,43.0,98,74,44,29.97,29.63,11,2,0,0.01
2013-9-9,77.4,57.0,39.0,51.5,46.9,38.5,98,73,36,30.13,30.00,3,1,0,0.00
2013-9-10,76.5,64.5,50.5,71.6,62.7,50.0,98,94,84,30.05,29.91,3,1,0,0.09
2013-9-11,100.2,81.0,64.8,79.5,72.5,64.2,98,79,46,29.94,29.83,4,1,0,0.01
2013-9-12,90.5,76.3,66.9,76.2,71.0,66.3,98,85,60,29.86,29.56,4,1,0,0.34
2013-9-13,81.5,69.0,59.5,71.9,65.3,55.5,98,89,64,29.63,29.43,6,1,0,0.16
2013-9-14,68.9,60.0,50.5,56.3,53.8,50.0,98,81,63,29.94,29.63,7,1,0,0.00
2013-9-15,76.1,59.1,45.7,55.7,51.2,45.2,98,79,45,30.07,29.94,5,1,0,0.00
2013-9-16,69.6,58.7,47.5,58.9,52.1,39.3,98,80,62,30.14,29.92,7,2,0,0.02
2013-9-17,64.4,50.0,40.5,45.7,40.5,36.2,98,72,42,30.33,30.15,9,2,0,0.00
2013-9-18,78.6,54.4,36.9,53.5,44.8,36.4,98,76,30,30.23,30.03,6,0,0,0.00
2013-9-19,86.0,59.5,41.5,57.9,51.3,41.0,98,79,38,30.04,29.91,4,0,0,0.02
2013-9-20,86.4,61.5,44.8,62.2,53.5,44.3,98,80,35,29.98,29.87,5,0,0,0.00
2013-9-21,77.0,64.2,48.6,67.2,60.2,48.1,98,88,65,29.91,29.59,4,1,0,0.02
2013-9-22,72.1,63.2,47.5,67.8,59.3,46.7,98,88,61,29.71,29.47,5,1,0,0.70
2013-9-23,65.1,52.3,42.3,47.2,43.6,40.3,98,74,50,29.90,29.72,9,2,0,0.00
2013-9-24,67.6,52.8,39.6,49.5,43.9,38.5,98,74,46,29.89,29.70,6,1,0,0.00
2013-9-25,72.3,54.6,40.3,54.5,48.0,39.8,98,81,51,29.87,29.76,7,1,0,0.00
2013-9-26,67.5,56.9,49.6,52.6,50.2,48.4,98,80,54,30.02,29.87,5,1,0,0.00
2013-9-27,66.2,57.0,46.6,56.3,52.7,46.1,98,86,69,30.16,30.01,5,1,0,0.00
2013-9-28,77.2,55.9,43.0,59.1,50.4,42.5,98,84,52,30.23,30.15,5,1,0,0.00
2013-9-29,73.9,52.9,43.5,56.4,47.3,43.0,98,84,49,30.16,30.02,4,0,0,0.00
2013-9-30,71.8,54.7,44.8,55.9,50.0,44.3,98,86,52,30.02,29.85,3,0,0,0.00
2013-10-1,78.3,57.0,41.4,58.3,50.6,40.9,98,83,43,29.85,29.72,5,1,0,0.00
2013-10-2,81.5,63.8,51.6,63.5,57.9,51.1,98,84,53,29.83,29.71,5,1,0,0.00
2013-10-3,81.1,61.1,47.1,57.1,52.4,46.6,98,78,34,29.98,29.83,3,0,0,0.00
2013-10-4,62.6,55.9,47.7,62.0,55.0,47.2,98,97,85,29.98,29.92,4,0,0,0.20
2013-10-5,70.7,61.8,55.9,67.6,59.7,55.3,98,93,84,30.01,29.94,4,1,0,0.00
2013-10-6,60.6,56.6,54.9,59.3,56.0,54.3,98,98,94,30.11,30.00,4,1,0,0.54
2013-10-7,73.4,64.4,56.3,72.8,63.2,54.8,98,96,82,30.02,29.69,5,1,0,0.03
2013-10-8,67.6,55.2,41.4,54.7,47.8,40.9,98,78,47,30.27,29.80,9,1,0,0.00
2013-10-9,65.3,49.6,40.5,49.6,44.1,39.5,98,83,55,30.38,30.26,5,1,0,0.00
2013-10-10,64.6,50.4,37.8,55.1,47.4,37.3,98,90,71,30.26,30.08,4,0,0,0.00
2013-10-11,71.8,55.8,46.6,59.1,50.2,45.3,98,83,50,30.08,29.97,6,1,0,0.00
2013-10-12,61.0,53.1,44.6,57.6,51.7,44.1,98,95,86,30.29,30.03,6,2,0,0.00
2013-10-13,60.4,50.9,37.0,51.5,47.3,36.5,98,88,71,30.35,30.27,6,1,0,0.00
2013-10-14,66.6,46.9,30.4,49.2,41.6,29.9,98,84,47,30.31,30.15,3,0,0,0.00
2013-10-15,69.4,55.2,44.4,56.7,50.6,43.9,98,86,60,30.16,30.07,5,1,0,0.00
2013-10-16,62.1,53.5,44.8,55.5,51.4,44.3,98,93,77,30.07,29.80,4,1,0,0.00
2013-10-17,73.8,58.4,47.1,62.9,55.0,46.6,98,90,66,29.81,29.60,5,0,0,0.00
2013-10-18,67.3,58.3,41.9,60.2,51.6,41.4,98,81,52,29.80,29.49,7,2,0,0.04
2013-10-19,68.5,52.0,37.4,50.3,44.1,36.9,98,78,44,29.87,29.63,3,0,0,0.00
2013-10-20,61.3,50.6,37.9,51.3,41.2,35.1,98,73,39,29.91,29.58,9,2,0,0.04
2013-10-21,67.5,49.1,35.6,45.6,40.6,34.0,98,76,43,30.01,29.89,5,0,0,0.00
2013-10-22,68.4,50.1,36.9,55.2,44.8,36.4,98,84,56,29.88,29.59,5,1,0,0.00
2013-10-23,52.5,43.7,33.1,41.6,35.8,31.3,98,75,51,29.69,29.46,6,0,0,0.00
2013-10-24,54.7,43.3,33.8,37.0,31.4,25.9,92,65,37,29.79,29.53,6,1,0,0.01
2013-10-25,49.8,38.0,28.2,36.3,29.4,25.5,98,73,46,30.06,29.79,7,1,0,0.00
2013-10-26,58.1,40.5,25.3,37.0,30.3,23.6,98,71,34,30.06,29.77,6,1,0,0.00
2013-10-27,55.8,45.8,33.1,40.0,35.7,28.8,96,69,48,29.96,29.70,8,2,0,0.00
2013-10-28,59.9,42.4,28.2,39.1,32.2,25.7,98,70,44,30.25,29.97,7,2,0,0.00
2013-10-29,50.5,35.6,26.1,31.1,23.5,20.9,90,64,34,30.36,30.25,6,1,0,0.00
2013-10-30,53.4,38.4,26.1,42.7,34.4,23.6,98,86,66,30.28,30.10,5,0,0,0.01
2013-10-31,61.3,46.4,29.3,59.7,45.4,28.8,98,96,87,30.15,29.68,5,1,0,0.07
2013-11-1,70.2,63.1,55.0,64.0,59.1,53.3,98,87,70,29.66,29.35,9,3,0,0.12
2013-11-2,69.1,53.4,42.1,51.7,45.7,41.6,98,79,40,29.61,29.47,5,0,0,0.00
2013-11-3,49.1,41.2,30.7,46.5,29.5,16.7,92,65,34,30.32,29.61,9,3,0,0.04
2013-11-4,43.7,31.4,21.6,18.9,17.2,15.5,87,58,33,30.61,30.33,8,2,0,0.00
2013-11-5,53.2,34.7,20.3,32.4,26.2,17.5,92,73,44,30.63,30.35,4,0,0,0.00
2013-11-6,63.3,48.5,34.9,49.9,41.6,31.7,94,79,52,30.35,29.93,7,1,0,0.00
2013-11-7,66.4,52.9,39.6,59.3,49.8,32.0,98,90,73,29.93,29.57,10,2,0,0.22
2013-11-8,49.3,38.7,26.4,35.7,27.4,21.3,83,64,51,30.00,29.71,8,2,0,0.00
2013-11-9,45.3,34.8,23.7,30.2,25.2,21.2,90,70,43,30.12,29.92,8,1,0,0.00
2013-11-10,56.1,43.9,37.0,44.8,36.9,29.5,98,78,55,29.91,29.63,10,1,0,0.04
2013-11-11,53.6,44.0,34.3,33.5,30.1,26.9,76,59,39,30.00,29.75,8,2,0,0.00
2013-11-12,47.5,34.6,23.0,40.5,25.4,14.4,98,70,53,30.09,29.77,10,3,0,0.16
2013-11-13,37.4,26.4,20.1,17.4,14.7,11.5,78,62,40,30.19,30.07,7,2,0,0.00
2013-11-14,52.3,35.7,22.1,27.2,22.0,15.7,78,59,35,30.06,29.94,7,1,0,0.00
2013-11-15,62.6,42.4,24.6,30.7,22.8,13.3,85,52,15,30.10,29.97,6,1,0,0.00
2013-11-16,62.2,41.6,29.1,35.7,28.4,21.6,89,65,22,30.22,30.07,5,0,0,0.00
2013-11-17,54.7,42.0,28.0,47.0,38.2,23.8,98,87,68,30.22,29.72,4,0,0,0.04
2013-11-18,67.1,55.0,40.5,60.9,47.3,34.0,98,77,49,29.72,29.41,12,2,0,0.35
2013-11-19,46.6,39.0,30.2,34.3,23.4,16.0,63,53,42,30.18,29.55,19,4,0,0.00
2013-11-20,41.5,29.7,18.3,16.4,14.5,12.3,78,55,31,30.53,30.17,8,2,0,0.00
2013-11-21,48.7,30.6,15.8,27.9,20.1,12.6,89,68,37,30.54,30.28,4,0,0,0.00
2013-11-22,45.9,41.6,34.9,45.4,40.1,28.8,98,95,78,30.28,29.70,2,0,0,0.15
2013-11-23,46.4,39.1,28.0,43.9,27.5,17.2,98,65,40,29.81,29.68,12,3,0,0.00
2013-11-24,27.5,22.7,18.7,20.4,3.9,-8.2,83,46,22,30.09,29.69,21,6,0,0.00
2013-11-25,34.3,23.2,14.0,17.9,3.6,-10.4,61,44,17,30.28,30.09,8,2,0,0.00
2013-11-26,41.2,34.8,29.8,34.7,23.3,15.4,98,64,46,30.22,29.91,3,1,0,0.16
2013-11-27,61.2,49.0,35.4,60.6,48.2,32.5,98,97,88,29.90,29.08,11,2,0,2.23
2013-11-28,36.3,29.1,19.6,32.2,16.5,8.3,88,60,38,30.34,29.37,12,3,0,0.00
2013-11-29,34.7,25.2,16.9,16.1,11.6,3.5,80,57,40,30.65,30.34,8,2,0,0.00
2013-11-30,35.2,23.1,14.0,20.9,12.9,6.7,79,65,50,30.70,30.32,4,1,0,0.00
2013-12-1,35.1,32.9,27.5,34.6,31.1,21.3,98,93,77,30.31,29.90,4,1,0,0.16
2013-12-2,39.4,36.2,34.9,38.9,35.7,34.4,98,98,98,29.90,29.81,3,1,0,0.01
2013-12-3,48.4,36.1,29.5,38.0,33.9,29.0,98,93,61,29.84,29.73,5,1,0,0.00
2013-12-4,44.8,33.0,24.8,31.9,28.0,23.6,98,84,55,30.09,29.84,4,1,0,0.00
2013-12-5,45.7,37.4,26.8,45.2,36.1,25.3,98,95,89,30.10,29.80,2,0,0,0.02
2013-12-6,55.2,47.0,33.1,54.6,45.0,32.6,98,93,77,30.03,29.74,5,1,0,0.41
2013-12-7,39.9,31.7,22.8,33.1,27.7,20.6,98,86,59,30.35,29.98,11,2,0,0.16
2013-12-8,31.5,26.4,18.9,20.7,17.6,13.8,89,70,53,30.50,30.36,4,1,0,0.00
2013-12-9,34.5,30.3,24.8,34.0,28.4,16.9,98,93,64,30.40,29.76,4,1,0,0.18
2013-12-10,32.9,28.4,19.8,32.4,27.0,16.6,98,94,79,29.89,29.66,4,0,0,0.01
2013-12-11,31.6,21.8,12.9,22.7,17.0,10.5,92,82,64,30.12,29.89,5,1,0,0.00
2013-12-12,24.6,17.1,6.6,17.3,7.0,1.9,88,66,40,30.19,29.97,10,2,0,0.00
2013-12-13,31.1,19.7,5.9,17.0,10.7,1.9,85,68,52,30.28,29.89,6,2,0,0.00
2013-12-14,18.3,12.9,9.0,16.1,3.4,-4.5,91,67,44,30.51,30.02,6,2,0,0.00
2013-12-15,32.7,24.9,14.4,32.2,23.0,12.0,98,93,84,30.00,29.31,10,1,0,0.00
2013-12-16,28.0,18.5,5.0,20.3,11.5,1.6,98,76,49,30.10,29.62,7,1,0,0.00
2013-12-17,17.6,8.7,-4.5,15.2,4.5,-9.3,91,83,65,30.20,29.84,7,1,0,0.00
2013-12-18,35.2,22.7,14.0,23.0,17.6,10.6,92,81,58,29.97,29.76,7,2,0,0.00
2013-12-19,44.2,28.3,12.6,28.2,22.8,10.2,94,81,53,30.00,29.84,4,0,0,0.20
2013-12-20,54.9,38.5,27.3,38.4,32.0,25.5,94,79,50,30.00,29.78,5,1,0,1.21
2013-12-21,58.6,43.6,32.9,49.2,40.1,32.0,98,88,70,29.85,29.73,3,0,0,0.05
2013-12-22,60.3,41.8,34.0,59.7,41.1,33.5,98,97,93,29.91,29.67,8,1,0,0.00
2013-12-23,36.5,33.3,31.6,36.0,32.8,31.1,98,98,98,29.97,29.86,5,1,0,0.95
2013-12-24,36.5,31.2,24.6,36.0,23.6,17.2,98,74,51,30.09,29.93,6,2,0,0.00
2013-12-25,24.4,17.4,11.5,14.0,4.6,0.0,80,57,41,30.44,30.08,9,2,0,0.00
2013-12-26,31.3,22.2,11.3,28.2,17.9,6.4,95,83,70,30.40,29.97,2,0,0,0.00
2013-12-27,35.2,23.4,15.1,23.0,18.2,12.5,93,81,59,30.17,30.08,5,1,0,0.01
2013-12-28,48.4,28.6,15.6,30.7,22.5,13.2,98,80,49,30.11,29.88,6,0,0,0.03
2013-12-29,40.6,33.0,23.5,37.8,31.5,21.8,98,94,75,29.93,29.29,10,1,0,1.64
2013-12-30,41.0,30.6,17.8,37.1,22.5,8.1,98,74,40,30.05,29.42,8,2,0,0.00
2013-12-31,26.6,17.7,12.0,13.8,5.9,-4.2,82,60,45,30.08,29.90,4,1,0,0.00
2014-1-1,27.3,18.8,9.9,12.7,7.8,4.2,83,63,46,30.28,30.08,6,1,0,0.00
2014-1-2,19.2,10.8,-0.2,15.1,6.5,-5.4,88,82,76,30.25,29.73,11,4,0,0.00